Dewpoint
25 25 24 25 27 27 27 28 28 28 28 29 31 33 35 36 37 38 39 39 40 41 42 42 42 46 47 50 53 53 53 49 42 44 45 45 44 43 44 44 45 45 46
25 24 25 26 26 26 26 27 28 26 28 27 30 33 34 35 37 38 38 38 40 41 41 43 45 48 50 50 53 54 50 47 44 40 42 41 41 42 42 42 43 44 44
24 25 27 27 28 28 30 34 34 35 29 32 34 34 36 36 36 37 38 39 39 41 43 45 45 47 49 50 52 52 48 46 44 41 39 40 40 39 37 37 37 38 41
26 28 30 30 32 33 36 38 38 37 37 37 36 36 36 36 36 37 37 38 39 42 45 45 46 47 49 49 52 48 46 43 42 40 38 37 35 36 35 33 32 34 33
30 32 34 35 36 37 38 38 38 39 39 38 37 37 38 38 38 39 40 40 41 43 44 45 47 49 51 52 48 45 43 41 40 38 35 34 33 33 31 32 31 31 30
34 35 36 37 37 38 38 38 39 40 40 40 40 39 39 39 41 43 43 43 44 45 45 47 48 50 52 54 50 47 44 40 39 35 35 33 32 31 32 31 30 29 25
39 38 38 38 38 39 39 39 39 40 40 40 40 40 40 41 44 45 46 45 45 46 47 49 50 51 52 51 50 48 47 45 41 37 34 33 32 32 32 30 28 24 23
38 38 38 38 38 39 39 39 39 40 41 41 41 42 42 43 46 47 48 47 47 48 49 47 46 46 46 44 43 42 41 41 39 38 36 36 33 33 30 23 23 23 23
38 38 39 39 39 39 39 40 42 43 43 45 47 45 43 46 49 48 44 42 42 43 43 43 42 42 45 44 40 39 40 41 44 43 41 39 35 32 28 24 22 21 20
38 39 40 40 40 40 41 42 42 43 44 44 44 46 47 46 47 46 43 42 42 42 44 44 45 44 45 44 38 37 36 35 34 32 31 31 30 29 30 23 23 20 19
40 42 42 42 42 43 42 42 41 42 41 41 42 43 44 44 45 45 43 39 39 38 38 39 40 42 41 40 37 31 31 30 30 24 23 22 22 23 23 23 22 21 22
42 42 42 44 43 42 41 41 41 40 39 40 40 41 42 43 44 43 42 41 40 36 36 37 38 40 39 39 36 37 35 29 22 22 22 22 24 25 26 27 27 27 26
42 43 44 43 43 42 41 41 40 39 39 38 38 38 39 40 41 42 41 41 40 35 35 37 37 37 37 34 34 32 29 22 22 22 22 23 24 24 25 27 28 29 29
43 42 42 41 41 40 40 40 39 37 36 35 34 33 33 32 32 31 31 31 34 31 32 29 31 31 31 29 26 25 23 23 23 23 23 23 23 24 24 26 27 28 28
43 41 41 41 40 39 40 39 38 38 37 35 34 33 31 30 30 31 29 25 25 26 25 23 22 22 22 23 23 23 23 23 22 22 22 22 22 23 24 25 26 26 25
41 41 40 40 39 38 38 38 41 40 40 39 37 34 32 34 35 33 32 31 29 28 22 21 22 22 22 22 22 23 23 24 23 23 22 22 23 23 24 24 24 24 23
41 41 40 39 38 37 36 35 35 37 39 39 37 36 35 34 33 33 32 31 30 27 22 22 22 23 23 22 23 22 23 24 24 24 24 25 25 25 24 24 24 23 23
42 41 39 38 37 36 35 34 34 33 32 33 35 34 34 34 33 31 30 27 24 25 23 23 23 23 23 23 23 24 24 24 24 24 24 24 24 24 23 23 23 23 24
41 40 38 37 36 35 34 33 33 32 31 31 31 32 32 33 32 32 30 24 24 24 24 24 24 25 25 25 25 25 25 25 25 25 25 25 25 24 25 25 26 27 25
42 39 37 35 34 33 32 30 29 29 28 27 27 27 27 27 26 26 26 26 26 26 26 26 27 27 27 27 27 26 26 25 25 25 26 26 26 25 24 24 25 24 24
42 39 36 34 33 32 31 30 30 30 30 30 29 30 32 27 27 27 27 27 27 27 27 27 27 27 27 27 27 26 26 26 26 26 26 25 25 25 26 26 25 25 24
41 39 36 33 33 32 31 31 30 30 30 30 30 30 32 28 28 28 28 29 29 29 29 28 28 28 28 28 27 27 26 26 26 26 26 27 27 27 26 26 25 25 25
40 37 35 34 33 32 30 29 29 29 29 29 29 29 29 29 29 29 29 29 29 29 29 28 28 28 28 28 28 28 27 27 27 27 27 27 27 27 26 26 26 26 26
39 36 34 32 31 30 29 29 30 30 29 29 30 30 29 29 29 29 29 29 29 29 29 29 28 28 28 28 28 28 28 28 28 28 28 28 28 28 27 27 27 26 26
38 35 33 31 30 29 28 29 29 29 30 30 30 30 30 29 29 29 29 29 29 29 28 28 28 28 28 28 29 30 32 32 29 30 28 28 28 27 27 26 25 25 24
37 34 32 31 29 28 28 29 29 29 30 30 30 29 29 29 29 29 29 29 29 29 28 28 28 28 28 29 31 33 34 33 31 31 29 28 27 26 26 25 25 25 24
Lifted_Index
5 5 5 6 6 6 6 6 6 7 7 6 6 5 4 3 3 3 3 3 4 4 4 5 4 3 2 1 0 -0 -0 -0 -0 -0 1 1 2 3 5 6 8 8 10
6 6 6 6 6 6 7 7 7 7 7 6 6 5 4 4 4 4 4 4 4 4 4 4 4 3 2 1 0 -0 -0 -0 -0 -0 1 2 3 5 6 7 8 10 11
7 7 7 7 7 8 8 8 7 7 7 6 6 6 6 5 5 5 5 4 4 3 3 3 3 2 1 1 0 -0 -0 -0 -0 0 1 2 4 6 7 8 9 11 12
7 7 7 8 8 8 8 8 8 8 7 7 7 7 6 6 5 5 4 3 3 3 2 3 3 2 2 1 0 -0 -0 -0 0 0 1 3 5 7 8 8 9 10 12
7 8 8 9 9 9 9 9 9 9 8 8 8 7 6 5 4 4 3 2 2 2 2 2 3 2 1 1 0 -0 0 -0 0 1 2 3 5 8 9 8 8 10 10
8 8 9 9 9 9 9 10 9 9 8 8 7 6 5 4 4 3 3 2 2 2 2 2 2 2 1 1 1 1 2 2 1 1 2 5 7 9 9 9 9 10 11
9 9 9 10 10 10 9 9 9 9 8 7 7 6 5 4 4 3 3 3 2 2 2 2 2 2 1 2 2 3 5 5 5 4 5 7 9 10 11 11 12 13 15
9 9 10 10 10 10 10 9 9 9 8 7 6 5 5 4 4 3 3 2 2 3 2 2 1 2 2 3 4 6 8 9 9 9 9 11 12 13 14 15 16 17 18
9 9 9 10 10 10 10 10 9 9 8 6 5 5 5 5 5 3 2 2 2 3 4 3 3 3 5 6 6 7 9 10 10 11 13 15 16 17 18 18 18 18 18
9 9 9 10 10 11 11 11 10 9 8 6 5 5 6 6 6 4 3 3 4 5 6 6 6 6 7 8 7 8 9 10 11 13 15 17 18 19 19 19 19 17 17
8 8 9 10 11 11 11 11 10 9 8 7 7 7 7 7 6 5 5 5 5 6 7 8 8 8 8 8 8 9 9 11 13 15 17 18 19 19 19 19 18 17 16
8 8 9 10 11 11 11 11 10 9 8 7 7 8 8 8 7 6 6 6 6 7 8 8 9 9 9 10 11 11 13 14 16 16 17 17 18 18 18 18 17 17 16
9 9 9 9 10 10 10 10 9 8 7 6 6 7 7 7 6 6 6 6 7 7 8 10 11 11 12 14 14 15 16 16 16 16 16 16 17 17 17 17 16 15 15
9 9 9 9 9 9 9 8 7 6 5 5 5 5 6 6 6 6 7 8 9 10 11 12 13 14 15 16 16 17 17 16 16 15 15 16 16 16 16 15 15 14 13
9 9 8 8 8 8 8 7 6 6 5 5 5 6 7 8 8 9 10 11 12 13 13 14 14 14 15 15 16 16 16 16 15 15 15 15 16 15 15 14 14 13 12
9 8 8 7 7 7 7 7 8 8 8 8 8 9 10 11 12 12 13 14 14 14 13 13 13 14 14 15 15 15 16 16 16 16 15 15 15 15 14 14 13 12 11
8 8 7 6 6 7 8 9 10 11 11 12 12 13 13 14 14 14 14 14 14 14 13 13 14 14 15 15 15 15 16 16 16 16 15 15 15 14 14 13 13 12 11
8 7 6 6 7 9 10 11 12 12 13 13 14 14 14 14 14 14 14 14 14 14 14 14 15 15 15 15 15 15 16 16 16 15 15 15 15 14 14 13 13 12 11
8 7 6 7 9 11 12 13 13 13 13 13 14 14 14 14 14 14 14 14 14 14 15 15 15 15 15 15 15 15 15 15 15 15 15 15 14 14 14 13 13 12 12
7 7 7 9 11 13 13 13 13 13 13 13 13 14 14 14 14 14 14 14 14 15 15 15 15 16 16 15 15 15 15 15 15 15 14 14 14 14 14 13 13 13 12
7 7 7 9 12 13 13 13 13 13 13 13 14 14 15 14 14 14 14 14 15 15 15 15 15 16 16 15 15 15 15 15 15 14 14 14 14 14 14 14 13 13 13
7 6 7 9 12 13 13 13 13 13 13 14 15 15 15 15 14 15 15 15 15 15 15 15 15 16 16 15 15 15 15 14 15 15 14 14 14 14 14 14 14 13 13
7 7 7 10 12 14 14 14 14 14 14 14 15 15 15 15 15 15 15 15 15 16 16 16 15 15 16 16 16 15 15 15 15 15 15 15 14 14 14 13 13 13 13
7 7 8 10 13 14 14 14 14 14 14 14 15 15 15 15 15 15 15 15 15 16 16 16 16 16 16 16 16 16 16 16 16 16 16 15 14 13 13 13 12 12 12
7 7 8 11 13 14 14 14 14 14 14 15 15 15 15 15 15 15 15 15 15 15 16 16 16 16 16 16 16 16 17 17 17 17 16 15 14 13 13 12 12 12 12
7 7 9 11 14 14 14 14 14 14 14 15 15 15 15 15 15 15 15 15 15 15 16 16 16 16 16 16 16 17 17 17 17 17 16 15 14 13 13 12 12 12 12